[[[{"header":{"parameterUnit":"kt","parameterCategory":2,"dx":1,"dy":1,"la1":30.253999710083008,"la2":30.299108505249023,"lo1":-89.0895004272461,"lo2":-89.04439544677734,"nx":28,"ny":28,"refTime":"2022-10-08T21:00:00:Z","depth":"0","parameterNumber":2,"parameterNumberName":"U-component_of_CURRENTS"},"data":[-0.2446,-0.2491,-0.2547,-0.2617,-0.2691,-0.261,-0.2559,-0.2366,-0.2245,-0.1956,-0.1804,-0.1747,-0.1675,-0.152,-0.132,-0.122,-0.1194,-0.1122,-0.1182,-0.133,-0.1361,-0.139,-0.137,-0.1105,-0.1105,-0.0949,-0.0948,-0.0947,-0.2481,-0.2551,-0.2669,-0.2776,-0.2843,-0.2912,-0.2933,-0.2808,-0.2664,-0.2587,-0.2409,-0.215,-0.1841,-0.1673,-0.1462,-0.1366,-0.1339,-0.1336,-0.1338,-0.1325,-0.1488,-0.1462,-0.1212,-0.1212,-0.1212,-0.1212,-0.1212,-0.1212,-0.2571,-0.2617,-0.2734,-0.2832,-0.2941,-0.2994,-0.295,-0.2994,-0.2955,-0.2805,-0.2844,-0.2586,-0.2351,-0.1965,-0.1857,-0.1665,-0.1742,-0.1612,-0.1653,-0.1664,-0.16,-0.1779,-0.1599,-0.1601,-0.1602,-0.1603,-0.1604,0,-0.2606,-0.2658,-0.275,-0.2874,-0.2945,-0.3013,-0.3061,-0.3082,-0.3095,-0.3068,-0.2991,-0.2876,-0.2653,-0.2368,-0.2135,-0.2027,-0.2007,-0.199,-0.1989,-0.1841,-0.1817,-0.1742,-0.1993,-0.1884,-0.1887,-0.189,-0.1892,-0.1893,-0.2596,-0.267,-0.281,-0.2875,-0.2907,-0.2972,-0.3008,-0.3023,-0.305,-0.3039,-0.3045,-0.2939,-0.2809,-0.2593,-0.2429,-0.2236,-0.2233,-0.2071,-0.2077,-0.2051,-0.2044,-0.2047,-0.2013,-0.1928,-0.1923,-0.192,-0.1917,0,-0.2574,-0.2649,-0.2773,-0.2868,-0.2891,-0.2938,-0.2974,-0.3007,-0.2999,-0.301,-0.3002,-0.2941,-0.2826,-0.2719,-0.2615,-0.2539,-0.2372,-0.2376,-0.2271,-0.221,-0.2066,-0.2093,-0.1985,-0.1933,-0.2223,-0.222,-0.2218,0,-0.2519,-0.2613,-0.268,-0.2751,-0.2847,-0.2872,-0.2935,-0.2937,-0.2935,-0.2951,-0.2894,-0.2888,-0.2807,-0.2741,-0.267,-0.2541,-0.2579,-0.2472,-0.2422,-0.2334,-0.2316,-0.224,-0.2256,-0.2553,-0.2553,-0.2554,-0.2555,0,-0.2371,-0.2525,-0.2638,-0.2686,-0.2783,-0.2809,-0.2843,-0.2854,-0.2876,-0.2856,-0.2837,-0.2817,-0.2809,-0.2741,-0.2676,-0.2673,-0.2604,-0.2588,-0.2452,-0.2443,-0.2292,-0.2269,-0.2262,-0.2555,-0.2556,-0.2556,-0.2556,0,-0.2275,-0.2354,-0.2514,-0.2596,-0.2628,-0.2709,-0.2763,-0.283,-0.282,-0.2792,-0.2765,-0.2723,-0.277,-0.2722,-0.2698,-0.269,-0.2637,-0.2615,-0.261,-0.2475,-0.2396,-0.222,-0.2239,-0.2213,-0.2508,-0.2508,-0.2508,0,-0.2105,-0.2263,-0.2281,-0.2446,-0.2536,-0.2522,-0.2608,-0.264,-0.2636,-0.2651,-0.2638,-0.2675,-0.2656,-0.2656,-0.267,-0.265,-0.2652,-0.2676,-0.2496,-0.2491,-0.2397,-0.2453,-0.2339,-0.2251,-0.251,-0.251,-0.251,0,-0.1973,-0.2061,-0.2085,-0.2152,-0.2243,-0.2282,-0.2379,-0.2447,-0.2479,-0.2499,-0.2528,-0.2641,-0.2567,-0.2601,-0.2607,-0.2627,-0.2652,-0.2552,-0.2547,-0.2512,-0.2559,-0.2466,-0.2455,-0.2592,-0.2593,-0.2594,-0.2512,0,-0.1955,-0.198,-0.2001,-0.2109,-0.2138,-0.22,-0.225,-0.2273,-0.2274,-0.2293,-0.2338,-0.237,-0.2398,-0.2444,-0.2461,-0.2536,-0.2467,-0.243,-0.2378,-0.245,-0.2403,-0.2402,-0.2376,-0.2373,-0.2371,-0.2369,0,0,-0.1847,-0.1888,-0.1839,-0.192,-0.1962,-0.1943,-0.2038,-0.2073,-0.2122,-0.2126,-0.2099,-0.218,-0.222,-0.2331,-0.2382,-0.2382,-0.2323,-0.2371,-0.2419,-0.2426,-0.2431,-0.239,-0.2391,-0.2366,-0.2365,-0.2364,-0.2364,0,-0.187,-0.179,-0.1824,-0.186,-0.1894,-0.1925,-0.1933,-0.1969,-0.1985,-0.2059,-0.2058,-0.2092,-0.2153,-0.221,-0.2243,-0.2345,-0.2273,-0.2342,-0.2428,-0.2403,-0.2412,-0.2419,-0.2381,-0.2384,-0.2359,-0.2359,-0.2359,0,-0.1861,-0.1852,-0.1833,-0.1824,-0.184,-0.192,-0.186,-0.1877,-0.1955,-0.1906,-0.1999,-0.1992,-0.2024,-0.2107,-0.2135,-0.2112,-0.2211,-0.2206,-0.2215,-0.2216,-0.2185,-0.2197,-0.2206,-0.2077,-0.2076,-0.2076,0,0,-0.1891,-0.1867,-0.1873,-0.1829,-0.1841,-0.1859,-0.1867,-0.1874,-0.1895,-0.1902,-0.1924,-0.1951,-0.2001,-0.2026,-0.2055,-0.2126,-0.2081,-0.2175,-0.2188,-0.2199,-0.2206,-0.2179,-0.219,-0.2074,-0.2074,-0.2074,0,0,-0.1908,-0.1894,-0.1882,-0.1824,-0.1849,-0.1871,-0.1871,-0.1875,-0.1898,-0.1893,-0.1903,-0.1908,-0.1969,-0.1965,-0.1935,-0.2062,-0.2001,-0.2008,-0.2087,-0.2103,-0.2116,-0.2119,-0.1917,0,0,0,0,0,-0.1944,-0.19,-0.1889,-0.1878,-0.1847,-0.1875,-0.1879,-0.1875,-0.186,-0.187,-0.1887,-0.1876,-0.1957,-0.1931,-0.1939,-0.2011,-0.2046,-0.2051,-0.2056,-0.2172,-0.219,-0.2204,0,0,0,0,0,0,-0.194,-0.1925,-0.1891,-0.1901,-0.1895,-0.1875,-0.1856,-0.1857,-0.1858,-0.1856,-0.1875,-0.1877,-0.1886,-0.1927,-0.1934,-0.2004,-0.1915,-0.2048,-0.2052,-0.2056,-0.2178,-0.2192,-0.2204,0,0,0,0,0,-0.1937,-0.1925,-0.1856,-0.1904,-0.1899,-0.1894,-0.1855,-0.1855,-0.1858,-0.1874,-0.1875,-0.1851,-0.1887,-0.1893,-0.1931,-0.2001,-0.191,-0.1912,-0.2051,-0.2054,-0.2057,-0.2185,0,0,0,0,0,0,-0.1935,-0.1948,-0.1857,-0.1858,-0.1888,-0.1897,-0.189,-0.1854,-0.1876,-0.1877,-0.185,-0.1848,-0.1888,-0.1892,-0.1897,-0.2002,-0.1906,-0.1908,-0.191,-0.2053,-0.2056,-0.2058,0,0,0,0,0,0,-0.1955,-0.1948,-0.1858,-0.1837,-0.1836,-0.1899,-0.1893,-0.1925,-0.1877,-0.1853,-0.1851,-0.1849,-0.1877,-0.1892,-0.1896,-0.1949,-0.1902,-0.1905,-0.1907,-0.1908,-0.2055,-0.2057,0,0,0,0,0,0,-0.1954,-0.1948,-0.1837,-0.1836,-0.1836,-0.1856,-0.1931,-0.1896,-0.1858,-0.1853,-0.1853,-0.1851,-0.1877,-0.1881,-0.1895,-0.1947,-0.1949,-0.1902,-0.1904,-0.1906,-0.1906,0,0,0,0,0,0,0,-0.1953,-0.1968,-0.1843,-0.1836,-0.1835,-0.1871,-0.1872,-0.1873,-0.1857,-0.1855,-0.1854,-0.1852,-0.1887,-0.189,-0.1893,-0.1945,0,0,-0.1902,-0.1904,0,0,0,0,0,0,0,0,-0.1972,-0.1969,-0.1843,-0.1843,-0.1843,-0.1872,-0.1872,-0.1873,-0.1857,-0.1855,-0.1854,-0.1853,-0.1888,-0.189,-0.1893,0,0,0,0,0,0,0,0,0,0,0,0,0,0,0,-0.1843,-0.1843,0,-0.1872,-0.1872,-0.1873,-0.1857,-0.1855,-0.1854,-0.1853,-0.1889,-0.1891,-0.1893,0,0,0,0,0,0,0,0,0,0,0,0,0,0,0,0,0,0,0,0,0,0,0,0,0,0,0,0,0,0,0,0,0,0,0,0,0,0,0,0,0,0,0,0,0,0,0,0,0,0,0,0,0,0,0,0,0,0,0,0,0,0,0,0,0,0,0,0,0]}],[{"header":{"parameterUnit":"kt","parameterCategory":2,"dx":1,"dy":1,"la1":30.253999710083008,"la2":30.299108505249023,"lo1":-89.0895004272461,"lo2":-89.04439544677734,"nx":28,"ny":28,"refTime":"2022-10-08T21:00:00:Z","depth":"0","parameterNumber":3,"parameterNumberName":"V-component_of_CURRENTS"},"data":[-0.1063,-0.1239,-0.1329,-0.1495,-0.1549,-0.1522,-0.1471,-0.1358,-0.1267,-0.1085,-0.0957,-0.0911,-0.0559,-0.0068,0.0227,0.0249,0.0353,0.0334,0.04,0.0307,0.0304,0.0302,0.0291,0.0332,0.0332,0.056,0.0562,0.0564,-0.1002,-0.1126,-0.1269,-0.1394,-0.147,-0.1468,-0.1441,-0.137,-0.1263,-0.1191,-0.1065,-0.0852,-0.0637,-0.0393,-0.007,0.005,0.0123,0.0122,0.0223,0.0243,0.0071,0.0047,0.0037,0.0037,0.0037,0.0036,0.0036,0.0036,-0.0915,-0.1007,-0.1139,-0.1261,-0.1329,-0.1363,-0.1347,-0.1317,-0.1264,-0.1128,-0.1042,-0.0896,-0.0676,-0.0418,-0.0289,-0.0056,-0.0022,0.0035,0.0089,0.0143,0.015,-0.0108,-0.0076,-0.0075,-0.0075,-0.0075,-0.0075,0,-0.0846,-0.0892,-0.0976,-0.1114,-0.1165,-0.1207,-0.1212,-0.1214,-0.1107,-0.105,-0.0936,-0.0845,-0.0652,-0.0471,-0.0292,-0.0167,0.0049,-0.0008,0.0072,0.0131,0.0141,0.0165,-0.0031,0.0034,0.0035,0.0035,0.0036,0.0036,-0.0755,-0.0814,-0.0906,-0.0967,-0.0987,-0.1014,-0.1038,-0.0968,-0.0968,-0.0855,-0.086,-0.0728,-0.0639,-0.0408,-0.0234,-0.0065,0.0032,0.0011,0.0041,0.006,0.0111,0.0158,0.0174,0.0045,0.0044,0.0043,0.0043,0,-0.0711,-0.0741,-0.0814,-0.0845,-0.0853,-0.0884,-0.0872,-0.0888,-0.0815,-0.0808,-0.0788,-0.0652,-0.0513,-0.0364,-0.0171,-0.0079,0.0081,0.0068,-0.0004,-0.0006,0.0054,0.0091,0.0242,0.0268,0.0094,0.0093,0.0092,0,-0.0651,-0.0682,-0.0729,-0.0772,-0.0809,-0.0765,-0.078,-0.0747,-0.0703,-0.07,-0.0594,-0.0569,-0.0377,-0.0281,-0.0163,-0.0041,0.0006,0.0042,0.005,0.0029,0.0018,0.0101,0.014,0.015,0.015,0.0149,0.0149,0,-0.0633,-0.0646,-0.0696,-0.0703,-0.0723,-0.0701,-0.0682,-0.0632,-0.0624,-0.0565,-0.0564,-0.0439,-0.0398,-0.0264,-0.0148,-0.0139,0.0006,0.0032,0.0032,0.0026,0.0043,0.0033,0.0157,0.0149,0.0148,0.0148,0.0148,0,-0.0601,-0.0637,-0.0676,-0.07,-0.0692,-0.0686,-0.0649,-0.0626,-0.0568,-0.0543,-0.0472,-0.0441,-0.0334,-0.0318,-0.0145,-0.0181,-0.0119,-0.0065,-0.0061,-0.01,-0.0122,-0.0096,-0.0068,-0.0003,-0.0056,-0.0057,-0.0059,0,-0.0618,-0.0661,-0.0639,-0.0653,-0.067,-0.0619,-0.0601,-0.0558,-0.0525,-0.0507,-0.0427,-0.0408,-0.0354,-0.0348,-0.0266,-0.02,-0.0141,-0.0192,-0.0082,-0.008,-0.0133,-0.0105,-0.0125,-0.0088,-0.0076,-0.0075,-0.0073,0,-0.0629,-0.0662,-0.0653,-0.0678,-0.0634,-0.0621,-0.0581,-0.053,-0.0524,-0.0476,-0.0449,-0.0383,-0.0359,-0.0335,-0.0304,-0.0237,-0.0175,-0.0225,-0.0221,-0.0206,-0.006,-0.0124,-0.0119,-0.0139,-0.0137,-0.0134,-0.0087,0,-0.0703,-0.0689,-0.0673,-0.0661,-0.0633,-0.0606,-0.0573,-0.0549,-0.0527,-0.0496,-0.0449,-0.0411,-0.0365,-0.0357,-0.0337,-0.027,-0.028,-0.026,-0.0237,-0.022,-0.0208,-0.0197,-0.0322,-0.0322,-0.0322,-0.0322,0,0,-0.0714,-0.0693,-0.0659,-0.0651,-0.0625,-0.0589,-0.0571,-0.0545,-0.0494,-0.0464,-0.0474,-0.0406,-0.0381,-0.0326,-0.0324,-0.032,-0.0296,-0.031,-0.0244,-0.0235,-0.0227,-0.0214,-0.0204,-0.0321,-0.0321,-0.0321,-0.0321,0,-0.0729,-0.0689,-0.0675,-0.0654,-0.061,-0.058,-0.0574,-0.0519,-0.0494,-0.0472,-0.0444,-0.0412,-0.0387,-0.0347,-0.0328,-0.0321,-0.0294,-0.033,-0.0312,-0.0245,-0.0237,-0.0229,-0.0215,-0.0206,-0.0321,-0.0321,-0.0321,0,-0.0749,-0.0716,-0.0696,-0.0638,-0.06,-0.058,-0.0543,-0.0499,-0.0483,-0.0448,-0.0422,-0.0402,-0.037,-0.0347,-0.0337,-0.0328,-0.0279,-0.0309,-0.031,-0.0295,-0.0224,-0.0216,-0.0208,-0.0298,-0.0298,-0.0298,0,0,-0.0761,-0.0734,-0.0678,-0.0633,-0.0615,-0.0561,-0.0531,-0.0505,-0.0463,-0.0447,-0.0421,-0.0395,-0.0372,-0.0355,-0.0338,-0.0312,-0.028,-0.0307,-0.0308,-0.0309,-0.0295,-0.0225,-0.0217,-0.0298,-0.0298,-0.0298,0,0,-0.0758,-0.07,-0.069,-0.0634,-0.0595,-0.0523,-0.0494,-0.0472,-0.0437,-0.0436,-0.0403,-0.0395,-0.0379,-0.0359,-0.0362,-0.0331,-0.0326,-0.0325,-0.0339,-0.034,-0.0341,-0.0329,-0.0344,0,0,0,0,0,-0.0745,-0.0711,-0.0703,-0.0686,-0.0589,-0.0533,-0.052,-0.0471,-0.0459,-0.0448,-0.042,-0.0408,-0.0355,-0.0356,-0.0349,-0.0345,-0.0297,-0.0297,-0.0297,-0.0311,-0.0312,-0.0313,0,0,0,0,0,0,-0.0738,-0.0719,-0.0703,-0.0632,-0.0608,-0.0533,-0.0511,-0.0497,-0.046,-0.0456,-0.0412,-0.0407,-0.0385,-0.0359,-0.0352,-0.0349,-0.0346,-0.0297,-0.0297,-0.0297,-0.0311,-0.0312,-0.0313,0,0,0,0,0,-0.0732,-0.0717,-0.0576,-0.0631,-0.0611,-0.0539,-0.0512,-0.05,-0.0473,-0.0428,-0.042,-0.0438,-0.0386,-0.0379,-0.0355,-0.0352,-0.0351,-0.0348,-0.0297,-0.0297,-0.0297,-0.0312,0,0,0,0,0,0,-0.0728,-0.0709,-0.0571,-0.0562,-0.0636,-0.0543,-0.0528,-0.0503,-0.0447,-0.0438,-0.0453,-0.0451,-0.0386,-0.038,-0.0375,-0.0355,-0.0354,-0.0352,-0.035,-0.0297,-0.0297,-0.0297,0,0,0,0,0,0,-0.0716,-0.0702,-0.0567,-0.0576,-0.0568,-0.0546,-0.0533,-0.0508,-0.0449,-0.0477,-0.0472,-0.0453,-0.0405,-0.0381,-0.0377,-0.034,-0.0357,-0.0354,-0.0353,-0.0352,-0.0297,-0.0297,0,0,0,0,0,0,-0.0709,-0.0697,-0.0578,-0.0572,-0.0566,-0.047,-0.0525,-0.0438,-0.0428,-0.0482,-0.0428,-0.0428,-0.0407,-0.0402,-0.0379,-0.0343,-0.0341,-0.0357,-0.0355,-0.0354,-0.0353,0,0,0,0,0,0,0,-0.0704,-0.0799,-0.0617,-0.0569,-0.0563,-0.0484,-0.0482,-0.048,-0.0428,-0.0428,-0.0428,-0.0428,-0.037,-0.0367,-0.0365,-0.0346,0,0,-0.0357,-0.0356,0,0,0,0,0,0,0,0,-0.0803,-0.08,-0.0617,-0.0615,-0.0613,-0.0484,-0.0482,-0.048,-0.0428,-0.0428,-0.0428,-0.0428,-0.0369,-0.0367,-0.0365,0,0,0,0,0,0,0,0,0,0,0,0,0,0,0,-0.0617,-0.0615,0,-0.0483,-0.0482,-0.0481,-0.0428,-0.0428,-0.0428,-0.0428,-0.0368,-0.0367,-0.0365,0,0,0,0,0,0,0,0,0,0,0,0,0,0,0,0,0,0,0,0,0,0,0,0,0,0,0,0,0,0,0,0,0,0,0,0,0,0,0,0,0,0,0,0,0,0,0,0,0,0,0,0,0,0,0,0,0,0,0,0,0,0,0,0,0,0,0,0,0]}]],[[{"header":{"parameterUnit":"kt","parameterCategory":2,"dx":1,"dy":1,"la1":30.253999710083008,"la2":30.299108505249023,"lo1":-89.0895004272461,"lo2":-89.04439544677734,"nx":28,"ny":28,"refTime":"2022-10-08T21:00:00:Z","depth":"2","parameterNumber":2,"parameterNumberName":"U-component_of_CURRENTS"},"data":[-0.2221,-0.2281,-0.2296,-0.2277,-0.2308,-0.2158,-0.2044,-0.1805,-0.1692,-0.1343,-0.1225,-0.1338,-0.1355,-0.1094,-0.0994,-0.0893,-0.103,-0.0841,-0.1302,-0.1389,-0.1424,-0.1483,-0.146,0,0,0,0,0,-0.2226,-0.2287,-0.2377,-0.2425,-0.2451,-0.2568,-0.2555,-0.2396,-0.203,-0.2022,-0.1779,-0.1507,-0.1308,-0.1341,-0.1195,-0.114,-0.1155,-0.1085,-0.1118,-0.1159,-0.1196,-0.1151,-0.0792,-0.079,-0.0788,-0.0787,0,0,-0.2233,-0.2278,-0.2338,-0.2441,-0.2569,-0.2623,-0.2573,-0.2631,-0.2481,-0.2289,-0.2331,-0.2062,-0.2055,-0.1696,-0.1549,-0.1496,-0.1642,-0.1582,-0.1599,-0.162,-0.1594,-0.1559,-0.1354,-0.1356,-0.1358,-0.136,-0.1361,0,-0.2195,-0.2254,-0.2315,-0.2416,-0.2551,-0.2682,-0.283,-0.2834,-0.2902,-0.2781,-0.2618,-0.2473,-0.2379,-0.2084,-0.1941,-0.1837,-0.1951,-0.1834,-0.2162,-0.1857,-0.1827,-0.1778,-0.1798,-0.1678,-0.1682,-0.1685,-0.1688,-0.1689,-0.2184,-0.2226,-0.2367,-0.2439,-0.2525,-0.2663,-0.2766,-0.2863,-0.2912,-0.2918,-0.2914,-0.2817,-0.2649,-0.2447,-0.2322,-0.2139,-0.2226,-0.1935,-0.194,-0.2227,-0.2176,-0.2181,-0.2186,-0.1734,-0.1728,-0.1723,-0.172,0,-0.2191,-0.2245,-0.2359,-0.2482,-0.2547,-0.2621,-0.2803,-0.2865,-0.2889,-0.2908,-0.2903,-0.2849,-0.2732,-0.2644,-0.2548,-0.2477,-0.2374,-0.2312,-0.2151,-0.2077,-0.2207,-0.2207,-0.2152,-0.2148,-0.2144,-0.2141,-0.2139,0,-0.2201,-0.2307,-0.2385,-0.241,-0.2558,-0.2615,-0.2751,-0.2787,-0.2829,-0.2853,-0.2814,-0.2801,-0.2743,-0.2681,-0.2611,-0.248,-0.2528,-0.2412,-0.2353,-0.2223,-0.22,-0.2434,-0.2425,-0.2513,-0.2514,-0.2515,-0.2515,0,-0.2103,-0.2285,-0.2371,-0.2415,-0.2522,-0.2607,-0.269,-0.2728,-0.2771,-0.2763,-0.2749,-0.2745,-0.274,-0.2681,-0.2615,-0.2611,-0.2552,-0.2532,-0.2383,-0.2372,-0.2182,-0.2153,-0.2516,-0.2516,-0.2516,-0.2517,-0.2517,0,-0.2088,-0.2126,-0.2257,-0.2373,-0.2413,-0.2523,-0.261,-0.269,-0.2705,-0.2688,-0.2675,-0.2633,-0.2699,-0.2645,-0.2636,-0.2622,-0.2569,-0.2547,-0.2541,-0.2395,-0.2297,-0.2074,-0.209,-0.2419,-0.2419,-0.2419,-0.2419,0,-0.1931,-0.2041,-0.2097,-0.2255,-0.2313,-0.2345,-0.2447,-0.2487,-0.2498,-0.2523,-0.2527,-0.2569,-0.2551,-0.2555,-0.2582,-0.2563,-0.2574,-0.2592,-0.2408,-0.2403,-0.2297,-0.2361,-0.2199,-0.2101,-0.2418,-0.2418,-0.2418,0,-0.1796,-0.1875,-0.1905,-0.1964,-0.2066,-0.2094,-0.2207,-0.2296,-0.2335,-0.2356,-0.2406,-0.2524,-0.2457,-0.2493,-0.2501,-0.2532,-0.2567,-0.2449,-0.2445,-0.2408,-0.248,-0.2371,-0.236,-0.2505,-0.2506,-0.2507,-0.2418,0,-0.1761,-0.1801,-0.1822,-0.1924,-0.1954,-0.2024,-0.2072,-0.2101,-0.2113,-0.2136,-0.2197,-0.2231,-0.2268,-0.2313,-0.233,-0.2422,-0.2342,-0.2303,-0.2254,-0.2334,-0.228,-0.2281,-0.2231,-0.2228,-0.2226,-0.2224,0,0,-0.1672,-0.1723,-0.1677,-0.1747,-0.1798,-0.1781,-0.1876,-0.1909,-0.1959,-0.1977,-0.1943,-0.2032,-0.2073,-0.2196,-0.225,-0.2244,-0.2181,-0.2236,-0.2295,-0.2304,-0.2311,-0.2265,-0.2269,-0.2221,-0.222,-0.2219,-0.2218,0,-0.1692,-0.1632,-0.1664,-0.1696,-0.1731,-0.1765,-0.1772,-0.1809,-0.1832,-0.1903,-0.1906,-0.1947,-0.1999,-0.2065,-0.21,-0.2203,-0.2128,-0.2193,-0.2295,-0.2278,-0.2289,-0.2298,-0.2256,-0.2261,-0.2213,-0.2213,-0.2214,0,-0.1684,-0.1683,-0.1669,-0.1672,-0.1689,-0.1762,-0.1709,-0.1727,-0.1804,-0.1754,-0.1848,-0.1841,-0.1873,-0.1957,-0.1985,-0.1961,-0.2066,-0.2055,-0.2065,-0.2075,-0.2053,-0.2067,-0.2079,-0.1921,-0.1921,-0.192,0,0,-0.171,-0.1695,-0.1707,-0.1677,-0.1689,-0.1708,-0.1716,-0.1723,-0.1745,-0.1751,-0.1773,-0.18,-0.185,-0.1876,-0.1902,-0.1973,-0.1931,-0.2023,-0.2037,-0.2049,-0.2065,-0.2047,-0.206,-0.1918,-0.1918,-0.1918,0,0,-0.1724,-0.1721,-0.1715,-0.1673,-0.1699,-0.1722,-0.1723,-0.1727,-0.1748,-0.1744,-0.1754,-0.1759,-0.182,-0.1814,-0.1784,-0.1912,-0.1849,-0.1855,-0.194,-0.1957,-0.197,-0.1986,-0.1767,0,0,0,0,0,-0.1759,-0.1726,-0.172,-0.1713,-0.1697,-0.1725,-0.1729,-0.1727,-0.1713,-0.1722,-0.174,-0.1728,-0.1808,-0.1782,-0.1789,-0.1863,-0.189,-0.1895,-0.19,-0.2023,-0.2041,-0.2056,0,0,0,0,0,0,-0.1757,-0.1747,-0.1722,-0.1736,-0.1733,-0.1725,-0.1709,-0.171,-0.1712,-0.171,-0.1728,-0.1729,-0.1739,-0.1778,-0.1784,-0.1856,-0.1765,-0.1892,-0.1896,-0.19,-0.2029,-0.2044,-0.2056,0,0,0,0,0,-0.1755,-0.1747,-0.1706,-0.1738,-0.1735,-0.1735,-0.1708,-0.1709,-0.171,-0.1727,-0.1728,-0.1705,-0.1739,-0.1745,-0.1782,-0.1854,-0.176,-0.1763,-0.1895,-0.1898,-0.1901,-0.2036,0,0,0,0,0,0,-0.1754,-0.1765,-0.1708,-0.1709,-0.1724,-0.1737,-0.1733,-0.1707,-0.1728,-0.1729,-0.1706,-0.1704,-0.174,-0.1744,-0.1748,-0.1855,-0.1757,-0.1759,-0.1761,-0.1897,-0.19,-0.1902,0,0,0,0,0,0,-0.1769,-0.1765,-0.1709,-0.169,-0.169,-0.1738,-0.1734,-0.1763,-0.1728,-0.1706,-0.1705,-0.1705,-0.1731,-0.1744,-0.1747,-0.1795,-0.1754,-0.1756,-0.1758,-0.1759,-0.1899,-0.1901,0,0,0,0,0,0,-0.1769,-0.1766,-0.169,-0.169,-0.169,-0.1711,-0.1766,-0.1747,-0.1712,-0.1706,-0.1709,-0.1707,-0.1731,-0.1734,-0.1747,-0.1793,-0.1794,-0.1754,-0.1756,-0.1757,-0.1757,0,0,0,0,0,0,0,-0.1768,-0.1773,-0.1694,-0.1689,-0.1689,-0.1724,-0.1725,-0.1726,-0.1712,-0.1711,-0.1709,-0.1708,-0.174,-0.1743,-0.1745,-0.1791,0,0,-0.1754,-0.1755,0,0,0,0,0,0,0,0,-0.1776,-0.1773,-0.1694,-0.1694,-0.1695,-0.1725,-0.1725,-0.1726,-0.1712,-0.1711,-0.1709,-0.1708,-0.1741,-0.1743,-0.1745,0,0,0,0,0,0,0,0,0,0,0,0,0,0,0,-0.1694,-0.1694,0,-0.1725,-0.1725,-0.1726,-0.1712,-0.1711,-0.171,-0.1709,-0.1742,-0.1743,-0.1745,0,0,0,0,0,0,0,0,0,0,0,0,0,0,0,0,0,0,0,0,0,0,0,0,0,0,0,0,0,0,0,0,0,0,0,0,0,0,0,0,0,0,0,0,0,0,0,0,0,0,0,0,0,0,0,0,0,0,0,0,0,0,0,0,0,0,0,0,0]}],[{"header":{"parameterUnit":"kt","parameterCategory":2,"dx":1,"dy":1,"la1":30.253999710083008,"la2":30.299108505249023,"lo1":-89.0895004272461,"lo2":-89.04439544677734,"nx":28,"ny":28,"refTime":"2022-10-08T21:00:00:Z","depth":"2","parameterNumber":3,"parameterNumberName":"V-component_of_CURRENTS"},"data":[-0.0744,-0.0915,-0.098,-0.1076,-0.1097,-0.1052,-0.0992,-0.0952,-0.0879,-0.0771,-0.0686,-0.0667,-0.045,-0.0254,-0.0071,0.0088,0.0155,0.0128,0.0066,0.0094,0.0097,0.0241,0.0192,0,0,0,0,0,-0.0687,-0.0806,-0.0904,-0.0988,-0.1031,-0.1058,-0.1028,-0.0978,-0.0881,-0.0828,-0.0725,-0.0539,-0.0414,-0.0241,0.0017,0.0154,0.0204,0.0217,0.0258,0.0261,0.0265,0.0234,0.0229,0.023,0.023,0.0231,0,0,-0.0593,-0.0669,-0.077,-0.0871,-0.0939,-0.0976,-0.0955,-0.0968,-0.0924,-0.0796,-0.0701,-0.0576,-0.0423,-0.0233,-0.0061,0.0126,0.0119,0.0217,0.0221,0.0225,0.019,0.0122,0.0174,0.0174,0.0174,0.0174,0.0174,0,-0.0535,-0.0578,-0.0634,-0.0744,-0.0813,-0.0871,-0.0909,-0.0904,-0.0832,-0.0783,-0.0638,-0.0563,-0.0391,-0.0218,-0.0079,0.0043,0.0204,0.0216,0.0239,0.0262,0.0195,0.0198,0.0191,0.0269,0.027,0.027,0.0271,0.0271,-0.048,-0.0519,-0.0595,-0.0649,-0.068,-0.0726,-0.0774,-0.0746,-0.0752,-0.0633,-0.062,-0.0497,-0.0415,-0.0194,-0.0018,0.0133,0.0175,0.0228,0.0252,0.0211,0.0215,0.0207,0.0198,0.0277,0.0277,0.0276,0.0275,0,-0.0465,-0.0493,-0.0542,-0.0578,-0.0597,-0.0622,-0.0662,-0.0687,-0.0632,-0.0614,-0.0593,-0.0455,-0.0315,-0.0188,0.0011,0.0105,0.0234,0.0258,0.0198,0.0203,0.021,0.02,0.0294,0.0293,0.0292,0.0291,0.029,0,-0.0454,-0.0475,-0.0525,-0.0546,-0.058,-0.0559,-0.0586,-0.0557,-0.0535,-0.0523,-0.0433,-0.0389,-0.0215,-0.0114,0.0002,0.0131,0.018,0.0216,0.0229,0.0219,0.021,0.0265,0.0258,0.0325,0.0324,0.0324,0.0323,0,-0.0449,-0.0479,-0.0509,-0.0513,-0.0531,-0.0524,-0.052,-0.0479,-0.0475,-0.0416,-0.0406,-0.0286,-0.0242,-0.0106,0.0011,0.0019,0.0176,0.0202,0.0208,0.0203,0.0243,0.0237,0.0323,0.0323,0.0323,0.0322,0.0322,0,-0.045,-0.0471,-0.0508,-0.0513,-0.0509,-0.0527,-0.0479,-0.0476,-0.0424,-0.0394,-0.0324,-0.0287,-0.0191,-0.0172,0.0001,-0.0034,0.0034,0.0092,0.0097,0.0072,0.006,0.0111,0.0129,0.0117,0.0115,0.0114,0.0113,0,-0.0432,-0.0477,-0.0469,-0.0488,-0.0494,-0.0449,-0.045,-0.0412,-0.0378,-0.0357,-0.0279,-0.0261,-0.0213,-0.02,-0.0123,-0.0049,0.0008,-0.0048,0.0095,0.0098,0.005,0.0063,0.0058,0.0107,0.0094,0.0096,0.0097,0,-0.0409,-0.0439,-0.0434,-0.0443,-0.0421,-0.0412,-0.0401,-0.0358,-0.035,-0.0314,-0.0284,-0.024,-0.0202,-0.0181,-0.0151,-0.0086,-0.0028,-0.006,-0.0055,-0.0034,0.0105,0.0043,0.0049,0.0018,0.002,0.0023,0.0082,0,-0.0419,-0.0416,-0.0417,-0.0419,-0.0402,-0.0393,-0.0368,-0.0352,-0.0326,-0.0298,-0.0257,-0.0225,-0.0179,-0.0179,-0.0161,-0.0104,-0.0103,-0.0076,-0.0041,-0.0038,-0.0019,-0.0007,-0.0131,-0.0131,-0.013,-0.0129,0,0,-0.0383,-0.0381,-0.035,-0.0361,-0.0341,-0.0305,-0.0308,-0.0295,-0.0263,-0.0231,-0.0238,-0.018,-0.0162,-0.0122,-0.013,-0.0129,-0.0095,-0.0113,-0.0057,-0.005,-0.0042,-0.0022,-0.0012,-0.0128,-0.0128,-0.0128,-0.0128,0,-0.0376,-0.0341,-0.0351,-0.0339,-0.0312,-0.0288,-0.0288,-0.0251,-0.0232,-0.0227,-0.0193,-0.0166,-0.0156,-0.0121,-0.0106,-0.0123,-0.0078,-0.0132,-0.0128,-0.0055,-0.0048,-0.0042,-0.0021,-0.0013,-0.0126,-0.0126,-0.0126,0,-0.0356,-0.0332,-0.0325,-0.0292,-0.0266,-0.0267,-0.0222,-0.0204,-0.0203,-0.0157,-0.0153,-0.013,-0.0101,-0.0096,-0.0093,-0.0079,-0.0049,-0.0079,-0.0083,-0.0063,0.0016,0.0022,0.0028,-0.0039,-0.0039,-0.0039,0,0,-0.0351,-0.0342,-0.0301,-0.0285,-0.0274,-0.0232,-0.0216,-0.0196,-0.0168,-0.0157,-0.0134,-0.0112,-0.0098,-0.0086,-0.0075,-0.0068,-0.0025,-0.007,-0.0074,-0.0078,-0.0061,0.0016,0.0022,-0.0038,-0.0038,-0.0038,0,0,-0.0344,-0.0304,-0.0289,-0.0267,-0.0243,-0.0194,-0.0184,-0.0163,-0.0142,-0.0138,-0.0104,-0.0097,-0.0096,-0.0076,-0.0071,-0.0065,-0.0047,-0.0047,-0.0078,-0.0082,-0.0086,-0.0069,-0.0043,0,0,0,0,0,-0.0318,-0.0312,-0.0298,-0.0288,-0.0229,-0.0203,-0.0195,-0.0158,-0.014,-0.0142,-0.0116,-0.0098,-0.0067,-0.0063,-0.0057,-0.0065,-0.0031,-0.0032,-0.0033,-0.0072,-0.0077,-0.0081,0,0,0,0,0,0,-0.0313,-0.0302,-0.0298,-0.0249,-0.0235,-0.0202,-0.017,-0.016,-0.014,-0.0136,-0.0102,-0.0097,-0.0074,-0.0063,-0.0059,-0.0067,-0.0044,-0.0031,-0.0032,-0.0034,-0.0073,-0.0078,-0.0081,0,0,0,0,0,-0.031,-0.0301,-0.0217,-0.0248,-0.0236,-0.0185,-0.017,-0.0162,-0.0147,-0.0109,-0.0102,-0.0121,-0.0075,-0.007,-0.0061,-0.007,-0.0047,-0.0045,-0.0032,-0.0033,-0.0034,-0.0076,0,0,0,0,0,0,-0.0307,-0.0294,-0.0214,-0.0208,-0.0248,-0.0187,-0.0177,-0.0163,-0.0121,-0.0114,-0.0126,-0.0124,-0.0075,-0.0071,-0.0067,-0.0072,-0.0049,-0.0047,-0.0046,-0.0033,-0.0033,-0.0034,0,0,0,0,0,0,-0.0298,-0.029,-0.0211,-0.0212,-0.0207,-0.0188,-0.0179,-0.0165,-0.0122,-0.0142,-0.0138,-0.0126,-0.0087,-0.0072,-0.0069,-0.0048,-0.0051,-0.0049,-0.0048,-0.0048,-0.0033,-0.0034,0,0,0,0,0,0,-0.0294,-0.0287,-0.0213,-0.0209,-0.0204,-0.0141,-0.0176,-0.0122,-0.0108,-0.0145,-0.0107,-0.0106,-0.0089,-0.0085,-0.0071,-0.0051,-0.0049,-0.0051,-0.005,-0.0049,-0.0048,0,0,0,0,0,0,0,-0.0291,-0.035,-0.0244,-0.0207,-0.0202,-0.0157,-0.0156,-0.0155,-0.0108,-0.0107,-0.0107,-0.0107,-0.0059,-0.0057,-0.0056,-0.0053,0,0,-0.0051,-0.005,0,0,0,0,0,0,0,0,-0.0352,-0.0351,-0.0244,-0.0243,-0.0242,-0.0157,-0.0156,-0.0155,-0.0108,-0.0107,-0.0107,-0.0107,-0.0058,-0.0057,-0.0056,0,0,0,0,0,0,0,0,0,0,0,0,0,0,0,-0.0244,-0.0243,0,-0.0157,-0.0156,-0.0155,-0.0108,-0.0107,-0.0107,-0.0107,-0.0058,-0.0057,-0.0056,0,0,0,0,0,0,0,0,0,0,0,0,0,0,0,0,0,0,0,0,0,0,0,0,0,0,0,0,0,0,0,0,0,0,0,0,0,0,0,0,0,0,0,0,0,0,0,0,0,0,0,0,0,0,0,0,0,0,0,0,0,0,0,0,0,0,0,0,0]}]],[[{"header":{"parameterUnit":"kt","parameterCategory":2,"dx":1,"dy":1,"la1":30.253999710083008,"la2":30.299108505249023,"lo1":-89.0895004272461,"lo2":-89.04439544677734,"nx":28,"ny":28,"refTime":"2022-10-08T21:00:00:Z","depth":"4","parameterNumber":2,"parameterNumberName":"U-component_of_CURRENTS"},"data":[-0.0489,-0.0447,-0.0407,-0.0321,-0.0282,-0.0274,-0.0295,-0.0353,-0.0376,-0.0464,-0.0588,-0.0665,-0.0885,-0.0862,-0.1079,-0.1119,-0.1161,-0.1423,-0.1421,-0.1543,-0.1555,-0.1565,-0.1714,0,0,0,0,0,-0.0528,-0.0472,-0.044,-0.0408,-0.0401,-0.0401,-0.0439,-0.0478,-0.0543,-0.0549,-0.0611,-0.0741,-0.0916,-0.1014,-0.1109,-0.1201,-0.1413,-0.1302,-0.1397,-0.1551,-0.1563,-0.1704,0,0,0,0,0,0,-0.0576,-0.0545,-0.0535,-0.0515,-0.0509,-0.0491,-0.052,-0.0538,-0.0562,-0.0655,-0.0668,-0.0842,-0.0983,-0.1132,-0.1253,-0.1366,-0.1392,-0.137,-0.1391,-0.1405,-0.1485,-0.129,-0.1134,0,0,0,0,0,-0.0626,-0.0628,-0.0626,-0.0614,-0.0612,-0.0613,-0.063,-0.0619,-0.0711,-0.0772,-0.0815,-0.0926,-0.1029,-0.1227,-0.1345,-0.1471,-0.1636,-0.1609,-0.1617,-0.1771,-0.1638,-0.1651,-0.166,-0.1611,-0.1612,-0.1613,-0.1614,0,-0.0709,-0.0679,-0.0703,-0.0697,-0.0719,-0.0731,-0.0744,-0.0829,-0.0851,-0.0929,-0.0928,-0.106,-0.1196,-0.1281,-0.152,-0.1642,-0.1722,-0.1641,-0.1806,-0.1658,-0.1667,-0.1673,-0.1678,-0.1624,-0.1623,-0.1622,-0.1622,0,-0.0741,-0.0781,-0.0754,-0.0804,-0.0817,-0.0814,-0.0864,-0.0887,-0.0976,-0.1019,-0.1065,-0.123,-0.1355,-0.1525,-0.1708,-0.1734,-0.182,-0.1828,-0.1808,-0.182,-0.1696,-0.1696,-0.1641,-0.1637,-0.1634,-0.1631,-0.1629,0,-0.0851,-0.0824,-0.0905,-0.0898,-0.0868,-0.0941,-0.0944,-0.1025,-0.1112,-0.1144,-0.1324,-0.1382,-0.1629,-0.1707,-0.1814,-0.185,-0.1925,-0.1919,-0.1924,-0.2067,-0.2064,-0.2053,-0.2049,-0.2113,-0.2115,-0.2117,-0.2118,0,-0.0975,-0.099,-0.0956,-0.0962,-0.1024,-0.1022,-0.1048,-0.1158,-0.1186,-0.134,-0.1376,-0.1545,-0.1607,-0.1755,-0.1867,-0.1906,-0.1961,-0.2029,-0.1963,-0.1947,-0.2062,-0.2055,-0.2121,-0.2121,-0.2122,-0.2122,-0.2123,0,-0.11,-0.1119,-0.1103,-0.1103,-0.1104,-0.1126,-0.115,-0.1199,-0.1317,-0.1387,-0.1507,-0.1613,-0.1702,-0.1818,-0.1918,-0.194,-0.1983,-0.2029,-0.2025,-0.1941,-0.1944,-0.1834,-0.1888,-0.1888,-0.1888,-0.1888,-0.1888,0,-0.1161,-0.1191,-0.1223,-0.1208,-0.1194,-0.1245,-0.1282,-0.1344,-0.1413,-0.1481,-0.1591,-0.1678,-0.1754,-0.181,-0.1908,-0.1962,-0.1992,-0.2018,-0.2018,-0.2012,-0.193,-0.1976,-0.2146,-0.189,-0.1889,-0.1889,-0.1889,0,-0.1209,-0.1274,-0.1268,-0.126,-0.1305,-0.1325,-0.1373,-0.1393,-0.1424,-0.1543,-0.1568,-0.17,-0.1762,-0.179,-0.1847,-0.1929,-0.1972,-0.1962,-0.1966,-0.1828,-0.2052,-0.1978,-0.1968,-0.2131,-0.2134,-0.2137,-0.189,0,-0.1272,-0.1269,-0.1284,-0.1326,-0.1352,-0.1344,-0.141,-0.1454,-0.1492,-0.1533,-0.162,-0.171,-0.1769,-0.1814,-0.1823,-0.1913,-0.1848,-0.1944,-0.1907,-0.1978,-0.1846,-0.1846,-0.1836,-0.1835,-0.1834,-0.1833,0,0,-0.1254,-0.1254,-0.131,-0.1344,-0.1333,-0.1388,-0.1383,-0.1437,-0.1498,-0.1506,-0.1548,-0.1669,-0.1706,-0.1762,-0.1791,-0.1822,-0.1811,-0.1784,-0.1938,-0.1949,-0.196,-0.1841,-0.1842,-0.1832,-0.1832,-0.1831,-0.1831,0,-0.1255,-0.1274,-0.1298,-0.1327,-0.1372,-0.1386,-0.1396,-0.1444,-0.1464,-0.1526,-0.1548,-0.1613,-0.1682,-0.1711,-0.1732,-0.1806,-0.1779,-0.1833,-0.1824,-0.1929,-0.1941,-0.1952,-0.1838,-0.1839,-0.1829,-0.1829,-0.1829,0,-0.1247,-0.1273,-0.1282,-0.1324,-0.1351,-0.1375,-0.1383,-0.1417,-0.1436,-0.1456,-0.1505,-0.1555,-0.1588,-0.1652,-0.1679,-0.1657,-0.1731,-0.1728,-0.1733,-0.1696,-0.18,-0.1815,-0.1828,-0.166,-0.1659,-0.1659,0,0,-0.1253,-0.1273,-0.1307,-0.1326,-0.1342,-0.1374,-0.1391,-0.1407,-0.1439,-0.1454,-0.1485,-0.1521,-0.1566,-0.1585,-0.1625,-0.1674,-0.1652,-0.1707,-0.1715,-0.1722,-0.1689,-0.1794,-0.1808,-0.1657,-0.1657,-0.1656,0,0,-0.1252,-0.1287,-0.1299,-0.1317,-0.135,-0.1382,-0.14,-0.1411,-0.1446,-0.145,-0.1466,-0.1475,-0.1538,-0.1542,-0.1511,-0.1614,-0.1582,-0.1589,-0.1607,-0.1617,-0.1625,-0.1575,-0.1495,0,0,0,0,0,-0.1275,-0.1284,-0.1294,-0.1301,-0.1343,-0.1379,-0.1386,-0.1405,-0.1404,-0.1418,-0.1448,-0.144,-0.1536,-0.1509,-0.1517,-0.1556,-0.1628,-0.1633,-0.1638,-0.1674,-0.1685,-0.1694,0,0,0,0,0,0,-0.1278,-0.1286,-0.1294,-0.1324,-0.1334,-0.1378,-0.1373,-0.1379,-0.1402,-0.1403,-0.1436,-0.1441,-0.1451,-0.1504,-0.1512,-0.1549,-0.1493,-0.163,-0.1634,-0.1638,-0.1678,-0.1687,-0.1694,0,0,0,0,0,-0.128,-0.1287,-0.1346,-0.1325,-0.1333,-0.1363,-0.1373,-0.1377,-0.1397,-0.1422,-0.1427,-0.141,-0.1451,-0.1459,-0.1509,-0.1546,-0.1488,-0.1491,-0.1632,-0.1636,-0.1639,-0.1682,0,0,0,0,0,0,-0.1282,-0.1293,-0.1349,-0.1353,-0.1318,-0.1361,-0.1367,-0.1376,-0.1414,-0.142,-0.1395,-0.1395,-0.1452,-0.1457,-0.1463,-0.1546,-0.1484,-0.1487,-0.1488,-0.1635,-0.1638,-0.164,0,0,0,0,0,0,-0.129,-0.1296,-0.1351,-0.1341,-0.1344,-0.1359,-0.1365,-0.1395,-0.1414,-0.1385,-0.1387,-0.1394,-0.1443,-0.1456,-0.1461,-0.1507,-0.1481,-0.1483,-0.1485,-0.1486,-0.1637,-0.1639,0,0,0,0,0,0,-0.1293,-0.1298,-0.134,-0.1342,-0.1345,-0.139,-0.1387,-0.1428,-0.1407,-0.1383,-0.1406,-0.1405,-0.1442,-0.1447,-0.1459,-0.1504,-0.1507,-0.1481,-0.1482,-0.1484,-0.1485,0,0,0,0,0,0,0,-0.1296,-0.1253,-0.1326,-0.1343,-0.1346,-0.1389,-0.139,-0.1392,-0.1407,-0.1406,-0.1406,-0.1405,-0.1465,-0.1468,-0.1471,-0.1501,0,0,-0.148,-0.1482,0,0,0,0,0,0,0,0,-0.1251,-0.1252,-0.1326,-0.1327,-0.1328,-0.139,-0.139,-0.1391,-0.1407,-0.1406,-0.1406,-0.1405,-0.1466,-0.1469,-0.1471,0,0,0,0,0,0,0,0,0,0,0,0,0,0,0,-0.1326,-0.1327,0,-0.139,-0.139,-0.1391,-0.1407,-0.1406,-0.1406,-0.1406,-0.1467,-0.1469,-0.1471,0,0,0,0,0,0,0,0,0,0,0,0,0,0,0,0,0,0,0,0,0,0,0,0,0,0,0,0,0,0,0,0,0,0,0,0,0,0,0,0,0,0,0,0,0,0,0,0,0,0,0,0,0,0,0,0,0,0,0,0,0,0,0,0,0,0,0,0,0]}],[{"header":{"parameterUnit":"kt","parameterCategory":2,"dx":1,"dy":1,"la1":30.253999710083008,"la2":30.299108505249023,"lo1":-89.0895004272461,"lo2":-89.04439544677734,"nx":28,"ny":28,"refTime":"2022-10-08T21:00:00:Z","depth":"4","parameterNumber":3,"parameterNumberName":"V-component_of_CURRENTS"},"data":[-0.071,-0.0767,-0.0788,-0.0862,-0.0914,-0.0995,-0.1031,-0.1052,-0.1005,-0.1012,-0.0876,-0.0846,-0.0597,-0.0748,-0.0361,-0.0314,-0.0312,-0.0021,-0.0017,-0.0058,-0.007,-0.0081,-0.0208,0,0,0,0,0,-0.0703,-0.073,-0.0806,-0.0895,-0.0979,-0.1022,-0.1086,-0.1122,-0.1143,-0.1065,-0.108,-0.0898,-0.0651,-0.0568,-0.0368,-0.0361,-0.0189,-0.0124,-0.0163,-0.0065,-0.0079,-0.0198,0,0,0,0,0,0,-0.0697,-0.0738,-0.0809,-0.0892,-0.0986,-0.1035,-0.1095,-0.1099,-0.1132,-0.1139,-0.1083,-0.0955,-0.0894,-0.0639,-0.042,-0.0241,-0.0221,-0.0197,-0.0203,-0.0213,-0.0324,-0.0278,-0.0147,0,0,0,0,0,-0.0687,-0.0729,-0.0792,-0.0889,-0.0968,-0.1059,-0.1134,-0.1151,-0.1213,-0.1262,-0.1176,-0.1063,-0.0869,-0.0702,-0.0461,-0.0262,-0.0309,-0.0161,-0.0168,-0.0279,-0.0233,-0.015,-0.0156,-0.0129,-0.0131,-0.0132,-0.0132,0,-0.0675,-0.0713,-0.0833,-0.0887,-0.0934,-0.1046,-0.1109,-0.1205,-0.1234,-0.1268,-0.1248,-0.1154,-0.1101,-0.0762,-0.0637,-0.0354,-0.0299,-0.0195,-0.0314,-0.0255,-0.0167,-0.0171,-0.0173,-0.0143,-0.0142,-0.0141,-0.014,0,-0.0684,-0.0708,-0.0796,-0.0896,-0.0936,-0.1014,-0.113,-0.1193,-0.1261,-0.1295,-0.1312,-0.1293,-0.1144,-0.1,-0.0798,-0.0681,-0.0491,-0.0367,-0.0457,-0.0365,-0.0194,-0.0192,-0.016,-0.0157,-0.0153,-0.015,-0.0148,0,-0.0669,-0.0733,-0.078,-0.081,-0.0929,-0.0972,-0.1095,-0.1158,-0.1222,-0.1253,-0.1284,-0.1273,-0.1206,-0.1076,-0.0912,-0.0675,-0.0734,-0.0507,-0.0415,-0.0554,-0.0549,-0.052,-0.0511,-0.0619,-0.0621,-0.0623,-0.0624,0,-0.0595,-0.0692,-0.0757,-0.0779,-0.0851,-0.0926,-0.0982,-0.1056,-0.1102,-0.1177,-0.118,-0.1222,-0.1174,-0.1097,-0.0866,-0.0873,-0.0705,-0.0675,-0.0448,-0.0432,-0.0527,-0.0514,-0.0626,-0.0627,-0.0627,-0.0628,-0.0628,0,-0.0541,-0.0575,-0.0663,-0.0737,-0.0762,-0.0821,-0.0927,-0.0983,-0.1036,-0.1041,-0.1086,-0.1031,-0.1062,-0.0959,-0.0877,-0.0888,-0.0733,-0.0626,-0.0614,-0.053,-0.0362,-0.0284,-0.0358,-0.0358,-0.0357,-0.0357,-0.0357,0,-0.0436,-0.0505,-0.0516,-0.0613,-0.0649,-0.0652,-0.0727,-0.0769,-0.0774,-0.0815,-0.0802,-0.0822,-0.0756,-0.0742,-0.0755,-0.0639,-0.0614,-0.0642,-0.0444,-0.0438,-0.0364,-0.0425,-0.0581,-0.0353,-0.0353,-0.0353,-0.0354,0,-0.0341,-0.0353,-0.0369,-0.0394,-0.042,-0.0447,-0.0523,-0.0587,-0.0636,-0.0618,-0.0692,-0.0689,-0.0649,-0.0651,-0.059,-0.0598,-0.0585,-0.0494,-0.0492,-0.0404,-0.051,-0.0422,-0.0414,-0.0563,-0.0567,-0.057,-0.0351,0,-0.0231,-0.0265,-0.0289,-0.032,-0.0343,-0.0381,-0.0379,-0.0401,-0.0378,-0.0379,-0.0429,-0.0381,-0.0405,-0.0373,-0.0331,-0.0416,-0.0319,-0.0297,-0.0272,-0.0347,-0.0224,-0.0227,-0.0167,-0.0165,-0.0163,-0.0162,0,0,-0.0139,-0.0183,-0.0149,-0.0186,-0.021,-0.0153,-0.0214,-0.0214,-0.0212,-0.0243,-0.0178,-0.0199,-0.0163,-0.0243,-0.0252,-0.0208,-0.0154,-0.0229,-0.0293,-0.0308,-0.0321,-0.0212,-0.0217,-0.0159,-0.0159,-0.0158,-0.0158,0,-0.0108,-0.0093,-0.0133,-0.0136,-0.0133,-0.0128,-0.0135,-0.0127,-0.013,-0.0152,-0.0112,-0.0115,-0.0098,-0.0115,-0.0115,-0.0178,-0.0107,-0.0144,-0.0273,-0.0277,-0.0294,-0.0309,-0.0205,-0.021,-0.0154,-0.0154,-0.0154,0,-0.0043,-0.0041,-0.0054,-0.0063,-0.0056,-0.0089,-0.0034,-0.0048,-0.0085,-0.0012,-0.0051,-0.0014,0.0005,-0.0023,-0.003,-0.0011,-0.0061,-0.0048,-0.0055,-0.0122,-0.0127,-0.0145,-0.0162,0.0047,0.0047,0.0047,0,0,-0.0019,-0.0039,-0.003,-0.0056,-0.0056,-0.0035,-0.0037,-0.0025,-0.0018,-0.0013,0.0003,0.0018,0.0017,0.0014,0.0021,-0.0008,0.0017,-0.0027,-0.0036,-0.0044,-0.0114,-0.0122,-0.0139,0.0048,0.0048,0.0048,0,0,-0.0009,-0.0008,0.0013,-0.002,-0.0019,-0.0009,-0.0021,-0.0001,0.0004,0.0013,0.0044,0.0048,0.003,0.005,0.0062,0.0024,0.0068,0.0065,-0.0004,-0.0015,-0.0024,-0.0112,0.01,0,0,0,0,0,0.0025,-0.0009,0.0009,0.0007,0.0002,-0.0016,-0.0016,0.0006,0.0032,0.0017,0.0039,0.0063,0.0062,0.0074,0.0075,0.004,0.0064,0.0061,0.0058,-0.0036,-0.0048,-0.0058,0,0,0,0,0,0,0.0024,0.002,0.001,0.0017,0.0017,-0.0015,0.0027,0.0032,0.0034,0.0038,0.0059,0.0064,0.0083,0.0075,0.0076,0.0041,0.01,0.0063,0.006,0.0058,-0.004,-0.005,-0.0059,0,0,0,0,0,0.0024,0.0021,0.0005,0.0019,0.0018,0.0039,0.0028,0.0032,0.0036,0.0058,0.0064,0.0052,0.0082,0.0084,0.0076,0.004,0.01,0.01,0.0061,0.0059,0.0058,-0.0045,0,0,0,0,0,0,0.0023,0.0028,0.0006,0.0007,0.003,0.0041,0.0043,0.0033,0.0056,0.0061,0.0053,0.0056,0.0081,0.0083,0.0084,0.0037,0.01,0.01,0.01,0.006,0.0058,0.0057,0,0,0,0,0,0,0.003,0.0028,0.0006,0.0019,0.0022,0.0043,0.0044,0.0041,0.0056,0.0049,0.0053,0.0054,0.0081,0.0081,0.0083,0.0077,0.01,0.01,0.01,0.01,0.0059,0.0057,0,0,0,0,0,0,0.003,0.0029,0.0019,0.0021,0.0024,0.0039,0.0042,0.0037,0.0061,0.0048,0.0065,0.0066,0.0079,0.0081,0.0082,0.0075,0.0076,0.01,0.01,0.01,0.01,0,0,0,0,0,0,0,0.003,0.0029,-0.0001,0.0023,0.0025,0.0017,0.0018,0.0018,0.0062,0.0063,0.0064,0.0066,0.0099,0.0099,0.0099,0.0073,0,0,0.01,0.01,0,0,0,0,0,0,0,0,0.003,0.003,-0.0001,-0.0001,-0.0001,0.0017,0.0018,0.0018,0.0062,0.0063,0.0064,0.0065,0.0099,0.0099,0.0099,0,0,0,0,0,0,0,0,0,0,0,0,0,0,0,-0.0001,-0.0001,0,0.0017,0.0018,0.0018,0.0062,0.0063,0.0064,0.0065,0.0099,0.0099,0.0099,0,0,0,0,0,0,0,0,0,0,0,0,0,0,0,0,0,0,0,0,0,0,0,0,0,0,0,0,0,0,0,0,0,0,0,0,0,0,0,0,0,0,0,0,0,0,0,0,0,0,0,0,0,0,0,0,0,0,0,0,0,0,0,0,0,0,0,0,0]}]]]